When you browse on this site, cookies collect data to enhance your experience and personalize the content and advertising you see.
Visit our Privacy Policy to learn more. By continuing to use the site, you agree to this use of cookies and data.
  • In Belgium
  • List of Countries
  • For 7 days
  • Water Temperature
  • Satellite Maps
  • Weather Map
  • Weather Widgets
  • user-avatar
    Login

    Hourly Weather Korechkino

    Today, 24 June, Monday

    Time Temperature Precipitation Wind Pressure Humidity
    00:00 +13°C° 0 mm 1 mps 754 mmHg 68%
    01:00 +12°C° 0 mm 1 mps 754 mmHg 65%
    02:00 +11°C° 0 mm 1 mps 754 mmHg 65%
    03:00 +12°C° 0 mm 1 mps 754 mmHg 65%
    04:00 +13°C° 0 mm 1 mps 754 mmHg 64%
    05:00 +14°C° 0 mm 1 mps 754 mmHg 63%
    06:00 +16°C° 0 mm 1 mps 755 mmHg 57%
    07:00 +19°C° 0 mm 1 mps 755 mmHg 51%
    08:00 +21°C° 0 mm 1 mps 755 mmHg 44%
    09:00 +19°C° 0 mm 2 mps 755 mmHg 48%
    10:00 +19°C° 0 mm 3 mps 755 mmHg 52%
    11:00 +18°C° 0 mm 4 mps 755 mmHg 56%
    12:00 +19°C° 0.1 mm 4 mps 755 mmHg 53%
    13:00 +19°C° 0.1 mm 4 mps 755 mmHg 51%
    14:00 +20°C° 0.1 mm 4 mps 755 mmHg 48%
    15:00 +20°C° 0 mm 4 mps 755 mmHg 47%
    16:00 +20°C° 0 mm 4 mps 755 mmHg 46%
    17:00 +21°C° 0 mm 4 mps 755 mmHg 46%
    18:00 +19°C° 0 mm 3 mps 755 mmHg 54%
    19:00 +17°C° 0 mm 3 mps 756 mmHg 62%
    20:00 +15°C° 0 mm 2 mps 756 mmHg 70%
    21:00 +14°C° 0 mm 2 mps 756 mmHg 71%
    22:00 +13°C° 0 mm 2 mps 756 mmHg 72%
    23:00 +12°C° 0 mm 2 mps 756 mmHg 73%

    Tomorrow, 25 June, Tuesday

    Time Temperature Precipitation Wind Pressure Humidity
    00:00 +10°C° 0 mm 2 mps 757 mmHg 74%
    01:00 +10°C° 0 mm 2 mps 757 mmHg 74%
    02:00 +9°C° 0 mm 2 mps 758 mmHg 75%
    03:00 +10°C° 0 mm 2 mps 758 mmHg 74%
    04:00 +12°C° 0 mm 2 mps 758 mmHg 73%
    05:00 +12°C° 0 mm 2 mps 758 mmHg 72%
    06:00 +14°C° 0 mm 2 mps 758 mmHg 66%
    07:00 +16°C° 0 mm 2 mps 758 mmHg 60%
    08:00 +17°C° 0 mm 2 mps 759 mmHg 54%
    09:00 +18°C° 0 mm 2 mps 758 mmHg 50%
    10:00 +20°C° 0 mm 3 mps 758 mmHg 45%
    11:00 +21°C° 0 mm 3 mps 758 mmHg 41%
    12:00 +20°C° 0 mm 3 mps 758 mmHg 42%
    13:00 +20°C° 0 mm 3 mps 758 mmHg 43%
    14:00 +20°C° 0 mm 3 mps 758 mmHg 45%
    15:00 +20°C° 0 mm 2 mps 758 mmHg 48%
    16:00 +20°C° 0 mm 2 mps 757 mmHg 51%
    17:00 +20°C° 0 mm 1 mps 757 mmHg 54%
    18:00 +19°C° 0 mm 1 mps 757 mmHg 60%
    19:00 +18°C° 0 mm 1 mps 757 mmHg 65%
    20:00 +15°C° 0 mm 1 mps 757 mmHg 71%
    21:00 +15°C° 0 mm 1 mps 757 mmHg 73%
    22:00 +14°C° 0 mm 1 mps 756 mmHg 75%
    23:00 +13°C° 0 mm 1 mps 756 mmHg 77%

    Day after tomorrow, 26 June, Wednesday

    Time Temperature Precipitation Wind Pressure Humidity
    00:00 +13°C° 0 mm 1 mps 756 mmHg 75%
    01:00 +13°C° 0 mm 1 mps 756 mmHg 74%
    02:00 +13°C° 0 mm 1 mps 756 mmHg 72%
    03:00 +14°C° 0 mm 1 mps 756 mmHg 72%
    04:00 +14°C° 0 mm 1 mps 755 mmHg 72%
    05:00 +15°C° 0 mm 1 mps 755 mmHg 72%
    06:00 +16°C° 0 mm 2 mps 755 mmHg 65%
    07:00 +17°C° 0 mm 3 mps 755 mmHg 58%
    08:00 +19°C° 0 mm 3 mps 754 mmHg 51%
    09:00 +19°C° 0.1 mm 3 mps 754 mmHg 51%
    10:00 +20°C° 0.1 mm 3 mps 754 mmHg 51%
    11:00 +20°C° 0.1 mm 3 mps 753 mmHg 51%
    12:00 +20°C° 0.2 mm 3 mps 753 mmHg 54%
    13:00 +20°C° 0.2 mm 3 mps 753 mmHg 56%
    14:00 +20°C° 0.2 mm 3 mps 753 mmHg 59%
    15:00 +19°C° 0.7 mm 3 mps 752 mmHg 66%
    16:00 +18°C° 0.7 mm 2 mps 751 mmHg 73%
    17:00 +18°C° 0.7 mm 2 mps 751 mmHg 81%
    18:00 +18°C° 0.1 mm 1 mps 750 mmHg 83%
    19:00 +15°C° 0.1 mm 1 mps 750 mmHg 85%
    20:00 +13°C° 0.1 mm 0 mps 750 mmHg 87%
    21:00 +12°C° 0 mm 0 mps 750 mmHg 88%
    22:00 +11°C° 0 mm 0 mps 749 mmHg 90%
    23:00 +10°C° 0 mm 0 mps 749 mmHg 91%

    27 June, Thursday

    Time Temperature Precipitation Wind Pressure Humidity
    00:00 +10°C° 0 mm 0 mps 749 mmHg 92%
    01:00 +11°C° 0 mm 1 mps 748 mmHg 94%
    02:00 +10°C° 0 mm 1 mps 748 mmHg 95%
    03:00 +10°C° 0 mm 2 mps 747 mmHg 94%
    04:00 +10°C° 0 mm 2 mps 747 mmHg 93%
    05:00 +12°C° 0 mm 2 mps 746 mmHg 92%
    06:00 +13°C° 0 mm 3 mps 746 mmHg 85%
    07:00 +14°C° 0 mm 3 mps 745 mmHg 77%
    08:00 +17°C° 0 mm 4 mps 745 mmHg 70%
    09:00 +18°C° 0 mm 4 mps 744 mmHg 67%
    10:00 +18°C° 0 mm 4 mps 743 mmHg 63%
    11:00 +19°C° 0 mm 4 mps 743 mmHg 60%
    12:00 +18°C° 0.1 mm 4 mps 742 mmHg 65%
    13:00 +18°C° 0.1 mm 3 mps 741 mmHg 70%
    14:00 +17°C° 0.1 mm 3 mps 741 mmHg 76%
    15:00 +17°C° 0.1 mm 3 mps 740 mmHg 79%
    16:00 +16°C° 0.1 mm 2 mps 740 mmHg 82%
    17:00 +16°C° 0.1 mm 2 mps 739 mmHg 85%
    18:00 +15°C° 0 mm 2 mps 739 mmHg 87%
    19:00 +15°C° 0 mm 2 mps 739 mmHg 88%
    20:00 +15°C° 0 mm 1 mps 738 mmHg 89%
    21:00 +14°C° 0 mm 2 mps 738 mmHg 91%
    22:00 +14°C° 0 mm 2 mps 738 mmHg 92%
    23:00 +12°C° 0 mm 3 mps 737 mmHg 94%

    28 June, Friday

    Time Temperature Precipitation Wind Pressure Humidity
    00:00 +12°C° 0 mm 3 mps 737 mmHg 93%
    01:00 +12°C° 0 mm 3 mps 737 mmHg 93%
    02:00 +11°C° 0 mm 3 mps 737 mmHg 93%
    03:00 +11°C° 0 mm 3 mps 736 mmHg 91%
    04:00 +12°C° 0 mm 3 mps 736 mmHg 89%
    05:00 +12°C° 0 mm 4 mps 736 mmHg 88%
    06:00 +13°C° 0 mm 4 mps 735 mmHg 82%
    07:00 +13°C° 0 mm 4 mps 735 mmHg 76%
    08:00 +14°C° 0 mm 5 mps 735 mmHg 71%
    09:00 +14°C° 0.4 mm 5 mps 735 mmHg 76%
    10:00 +13°C° 0.4 mm 5 mps 734 mmHg 82%
    11:00 +13°C° 0.4 mm 4 mps 734 mmHg 88%
    12:00 +12°C° 1.8 mm 4 mps 734 mmHg 91%
    13:00 +12°C° 1.8 mm 4 mps 734 mmHg 93%
    14:00 +11°C° 1.8 mm 4 mps 734 mmHg 96%
    15:00 +11°C° 0.5 mm 4 mps 734 mmHg 96%
    16:00 +11°C° 0.5 mm 4 mps 734 mmHg 96%
    17:00 +11°C° 0.5 mm 4 mps 734 mmHg 96%
    18:00 +11°C° 0.3 mm 4 mps 733 mmHg 97%
    19:00 +11°C° 0.3 mm 4 mps 733 mmHg 97%
    20:00 +11°C° 0.3 mm 4 mps 733 mmHg 97%
    21:00 +11°C° 0.3 mm 4 mps 732 mmHg 97%
    22:00 +11°C° 0.3 mm 4 mps 732 mmHg 98%
    23:00 +11°C° 0.3 mm 4 mps 732 mmHg 98%

    29 June, Saturday

    Time Temperature Precipitation Wind Pressure Humidity
    00:00 +11°C° 1.9 mm 4 mps 731 mmHg 98%
    01:00 +11°C° 1.9 mm 4 mps 731 mmHg 98%
    02:00 +11°C° 1.9 mm 4 mps 730 mmHg 98%
    03:00 +11°C° 2.1 mm 3 mps 730 mmHg 98%
    04:00 +11°C° 2.1 mm 3 mps 730 mmHg 98%
    05:00 +11°C° 2.1 mm 3 mps 730 mmHg 99%
    06:00 +12°C° 0.2 mm 3 mps 730 mmHg 98%
    07:00 +13°C° 0.2 mm 3 mps 730 mmHg 97%
    08:00 +13°C° 0.2 mm 3 mps 730 mmHg 97%
    09:00 +14°C° 0.6 mm 3 mps 731 mmHg 97%
    10:00 +14°C° 0.6 mm 3 mps 731 mmHg 96%
    11:00 +14°C° 0.6 mm 4 mps 732 mmHg 96%
    12:00 +14°C° 0.6 mm 4 mps 732 mmHg 95%
    13:00 +15°C° 0.6 mm 4 mps 732 mmHg 94%
    14:00 +15°C° 0.6 mm 5 mps 732 mmHg 92%
    15:00 +15°C° 0.4 mm 5 mps 733 mmHg 92%
    16:00 +15°C° 0.4 mm 5 mps 733 mmHg 92%
    17:00 +15°C° 0.4 mm 5 mps 733 mmHg 91%
    18:00 +14°C° 0.2 mm 5 mps 734 mmHg 93%
    19:00 +14°C° 0.2 mm 5 mps 734 mmHg 94%
    20:00 +13°C° 0.2 mm 5 mps 735 mmHg 96%
    21:00 +13°C° 0.2 mm 5 mps 735 mmHg 96%
    22:00 +13°C° 0.2 mm 4 mps 735 mmHg 96%
    23:00 +13°C° 0.2 mm 4 mps 735 mmHg 97%
    Show more